This is the latest recevied weather packets stored in our database for station/object SA6BET-2. If no packets are shown the sender has not sent any weather packets the latest 10 day(s).
| Time | Temp. | Humidity | Pressure | Rain* | Wind** | Luminosity | Snow |
|---|---|---|---|---|---|---|---|
| 1787754146 | 33.33° C | 100% | 1012.8 hPa | - | - | - | - |
| 1787753246 | 33.33° C | 100% | 1012.9 hPa | - | - | - | - |
| 1787752346 | 34.44° C | 100% | 1012.9 hPa | - | - | - | - |
| 1787751446 | 34.44° C | 100% | 1013.1 hPa | - | - | - | - |
| 1787750545 | 33.89° C | 100% | 1013.4 hPa | - | - | - | - |
| 1787749645 | 33.89° C | 100% | 1013.6 hPa | - | - | - | - |
| 1787748745 | 32.78° C | 100% | 1013.7 hPa | - | - | - | - |
| 1787747845 | 31.11° C | 100% | 1013.7 hPa | - | - | - | - |
| 1787746945 | 32.22° C | 100% | 1013.9 hPa | - | - | - | - |
| 1787746045 | 32.22° C | 100% | 1014.1 hPa | - | - | - | - |
| 1787745144 | 30.56° C | 100% | 1014.2 hPa | - | - | - | - |
| 1787744244 | 32.22° C | 100% | 1014.1 hPa | - | - | - | - |
| 1787743344 | 31.67° C | 100% | 1014.5 hPa | - | - | - | - |
| 1787742444 | 30° C | 100% | 1014.8 hPa | - | - | - | - |
| 1787741543 | 30° C | 100% | 1014.9 hPa | - | - | - | - |
| 1787741052 | 31.11° C | 100% | 1014.8 hPa | - | - | - | - |
| 1787740152 | 29.44° C | 100% | 1015 hPa | - | - | - | - |
| 1787739252 | 31.11° C | 100% | 1015.3 hPa | - | - | - | - |
| 1787738351 | 29.44° C | 100% | 1014.9 hPa | - | - | - | - |
| 1787737451 | 29.44° C | 100% | 1014.6 hPa | - | - | - | - |
| 1787736551 | 27.78° C | 100% | 1014.4 hPa | - | - | - | - |
| 1787735651 | 30° C | 100% | 1013.6 hPa | - | - | - | - |
| 1787734751 | 28.33° C | 100% | 1013.5 hPa | - | - | - | - |
| 1787733850 | 28.33° C | 100% | 1016.2 hPa | - | - | - | - |
| 1787732950 | 29.44° C | 100% | 1015 hPa | - | - | - | - |
* Rain since midnight (hover to see other rain measurements)
** Current wind speed in m/s (hover to see current wind gust speed)